[[{"header":{"parameterUnit":"m.s-1","parameterCategory":1,"la1":30.2991,"la2":30.254,"lo1":-89.0895,"lo2":-89.0444,"dy":0.0017,"dx":0.0017,"nx":28,"ny":28,"refTime":"2025-11-15T09:00:00:Z","depth":0,"parameterNumber":2,"parameterNumberName":"U-component_of_WINDS"},"data":[0,0,0,0,0,0,0,0,0,0,0,0,0,0,0,0,0,0,0,0,0,0,0,0,0,0,0,0,0,0,0,0,0,0,0,0,0,0,0,0,0,0,0,0,0,0,0,0,0,0,0,0,0,0,0,0,0,0,0.0723,0.0724,0,0.0782,0.0782,0.0783,0.0779,0.0778,0.0777,0.0776,0.0839,0.0842,0.0844,0,0,0,0,0,0,0,0,0,0,0,0,0,0.0612,0.0614,0.0723,0.0724,0.0725,0.0782,0.0782,0.0783,0.0779,0.0778,0.0777,0.0776,0.0838,0.0841,0.0844,0,0,0,0,0,0,0,0,0,0,0,0,0,0.0664,0.0614,0.0723,0.0729,0.0731,0.0781,0.0782,0.0783,0.0779,0.0778,0.0777,0.0775,0.0837,0.0841,0.0845,0.0894,0,0,0.0856,0.0858,0,0,0,0,0,0,0,0,0.0661,0.0668,0.0728,0.0729,0.073,0.0772,0.0766,0.0821,0.078,0.0761,0.0776,0.0775,0.0818,0.0823,0.0837,0.0897,0.0899,0.0856,0.0859,0.086,0.0861,0,0,0,0,0,0,0,0.0658,0.0666,0.0746,0.0729,0.073,0.0731,0.0737,0.0776,0.0796,0.0762,0.0762,0.0769,0.0818,0.0833,0.0839,0.09,0.0856,0.086,0.0862,0.0863,0.1006,0.1007,0,0,0,0,0,0,0.0652,0.0663,0.0745,0.0748,0.0692,0.0734,0.074,0.076,0.0796,0.08,0.077,0.0769,0.0828,0.0834,0.0841,0.0902,0.086,0.0864,0.0866,0.1004,0.1006,0.1008,0,0,0,0,0,0,0.065,0.0659,0.0742,0.0705,0.0716,0.0737,0.0759,0.0762,0.0777,0.0801,0.0805,0.0782,0.0827,0.0835,0.0881,0.0904,0.0865,0.0869,0.1002,0.1005,0.1007,0.1025,0,0,0,0,0,0,0.0646,0.0658,0.0677,0.0706,0.0718,0.078,0.076,0.0764,0.0783,0.0781,0.0813,0.0817,0.0827,0.0875,0.0885,0.0909,0.0872,0.1,0.1003,0.1006,0.1022,0.1028,0.1032,0,0,0,0,0,0.0642,0.0679,0.0677,0.0687,0.0741,0.0782,0.0789,0.0798,0.0785,0.0804,0.082,0.0816,0.09,0.088,0.089,0.0916,0.0999,0.1003,0.1006,0.102,0.1027,0.1032,0,0,0,0,0,0,0.0653,0.0683,0.0682,0.0729,0.0753,0.0781,0.0805,0.0804,0.0833,0.083,0.0841,0.0849,0.0895,0.091,0.0887,0.0967,0.0948,0.0954,0.0955,0.0962,0.0966,0.0962,0.0875,0,0,0,0,0,0.0661,0.069,0.0716,0.0755,0.0767,0.0784,0.0802,0.0807,0.0833,0.0843,0.0862,0.0888,0.0921,0.0942,0.0973,0.1024,0.1032,0.1047,0.1052,0.1056,0.1061,0.1092,0.1099,0.1019,0.1019,0.1019,0,0,0.0677,0.0697,0.0716,0.0758,0.0777,0.0809,0.0793,0.0827,0.0851,0.0848,0.0893,0.0908,0.0938,0.0987,0.101,0.1001,0.1085,0.106,0.1063,0.1066,0.1096,0.1104,0.111,0.1022,0.1021,0.1021,0,0,0.0724,0.0741,0.0777,0.0796,0.0825,0.0837,0.0845,0.0874,0.0884,0.0928,0.0927,0.0957,0.1012,0.1034,0.1052,0.1108,0.1107,0.1118,0.1144,0.1173,0.118,0.1185,0.1207,0.1215,0.1123,0.1123,0.1123,0,0.0741,0.0788,0.0796,0.083,0.085,0.0848,0.0885,0.0904,0.0942,0.0956,0.0946,0.1015,0.1035,0.109,0.1104,0.1118,0.113,0.1115,0.1178,0.1184,0.1189,0.121,0.1218,0.1124,0.1124,0.1124,0.1124,0,0.0809,0.0842,0.0867,0.0903,0.0925,0.0961,0.0975,0.0997,0.1,0.1013,0.106,0.1083,0.112,0.1133,0.1136,0.1189,0.1183,0.1175,0.1157,0.1198,0.1218,0.1226,0.1126,0.1125,0.1125,0.1125,0,0,0.0864,0.0904,0.0914,0.0931,0.0963,0.0989,0.1026,0.1061,0.108,0.1106,0.1139,0.1185,0.1178,0.1199,0.1205,0.1231,0.1277,0.122,0.1221,0.1231,0.1339,0.1346,0.1355,0.1275,0.1277,0.1278,0.1337,0,0.0915,0.0979,0.0987,0.1044,0.1076,0.1075,0.1107,0.1131,0.1144,0.1174,0.1189,0.1223,0.121,0.1223,0.1248,0.1265,0.1299,0.1261,0.1307,0.1309,0.1301,0.1365,0.1373,0.1427,0.1345,0.1346,0.1347,0,0.0984,0.1012,0.1072,0.1101,0.1115,0.1143,0.1177,0.1204,0.1232,0.124,0.1264,0.1267,0.1307,0.1286,0.1341,0.1316,0.1335,0.1347,0.1349,0.1355,0.1331,0.1375,0.1445,0.1454,0.1359,0.1358,0.1357,0,0.102,0.1073,0.1116,0.1131,0.1165,0.1186,0.1201,0.1228,0.1249,0.1279,0.1293,0.1327,0.1346,0.1373,0.1387,0.137,0.1442,0.1422,0.1452,0.1452,0.1468,0.1467,0.1544,0.1478,0.1478,0.1478,0.1477,0,0.1078,0.1115,0.1133,0.116,0.1202,0.1212,0.1254,0.1269,0.1293,0.1324,0.1325,0.1355,0.1369,0.1401,0.1412,0.1458,0.1466,0.1475,0.1478,0.1476,0.1475,0.149,0.1487,0.148,0.1479,0.1479,0.1478,0,0.1126,0.114,0.1187,0.1216,0.1224,0.1254,0.128,0.1307,0.132,0.1359,0.1369,0.139,0.1428,0.1443,0.1489,0.1496,0.155,0.1549,0.154,0.1542,0.1571,0.1569,0.1662,0.1675,0.1598,0.1599,0.16,0,0.1163,0.1191,0.1223,0.1244,0.126,0.1293,0.1314,0.1325,0.1348,0.1383,0.1406,0.1444,0.1474,0.1535,0.1556,0.1592,0.1593,0.1623,0.1598,0.1596,0.1596,0.1594,0.1598,0.1628,0.1628,0.1629,0.163,0,0.1227,0.1232,0.1262,0.1296,0.1321,0.1348,0.1375,0.1392,0.1407,0.1433,0.1471,0.1495,0.1543,0.1581,0.1618,0.1636,0.1637,0.1637,0.1646,0.1645,0.164,0.1645,0.1555,0.1635,0.1635,0.1634,0.1634,0.1634,0.1271,0.1298,0.1325,0.1359,0.138,0.1405,0.1432,0.1448,0.148,0.1519,0.1524,0.1566,0.1595,0.1645,0.1664,0.1699,0.1691,0.1704,0.1707,0.1711,0.1714,0.1633,0.1705,0.1705,0.1705,0.1705,0.1705,0,0.1337,0.1354,0.1386,0.1423,0.145,0.1447,0.1476,0.15,0.1536,0.1563,0.1593,0.1638,0.1676,0.1699,0.1737,0.176,0.1761,0.177,0.1769,0.1774,0.1717,0.1706,0.1768,0.1768,0.1768,0.1768,0.1768,0.1768,0.1374,0.1419,0.1428,0.1484,0.1501,0.1541,0.1559,0.1583,0.1604,0.1654,0.1685,0.1699,0.1726,0.1766,0.1801,0.1807,0.1822,0.1831,0.1837,0.1784,0.1777,0.1771,0.1761,0.1834,0.1834,0.1891,0.1891,0.1892]},{"header":{"parameterUnit":"m.s-1","parameterCategory":1,"la1":30.2991,"la2":30.254,"lo1":-89.0895,"lo2":-89.0444,"dy":0.0017,"dx":0.0017,"nx":28,"ny":28,"refTime":"2025-11-15T09:00:00:Z","depth":0,"parameterNumber":3,"parameterNumberName":"V-component_of_WINDS"},"data":[0,0,0,0,0,0,0,0,0,0,0,0,0,0,0,0,0,0,0,0,0,0,0,0,0,0,0,0,0,0,0,0,0,0,0,0,0,0,0,0,0,0,0,0,0,0,0,0,0,0,0,0,0,0,0,0,0,0,-0.3058,-0.3058,0,-0.3047,-0.3047,-0.3047,-0.3062,-0.3062,-0.3063,-0.3063,-0.3049,-0.3048,-0.3048,0,0,0,0,0,0,0,0,0,0,0,0,0,-0.309,-0.3089,-0.3058,-0.3058,-0.3058,-0.3047,-0.3047,-0.3047,-0.3062,-0.3062,-0.3063,-0.3064,-0.305,-0.3049,-0.3047,0,0,0,0,0,0,0,0,0,0,0,0,0,-0.3077,-0.3089,-0.3058,-0.3064,-0.3064,-0.3047,-0.3047,-0.3047,-0.3062,-0.3062,-0.3063,-0.3064,-0.305,-0.3049,-0.3047,-0.3023,0,0,-0.3043,-0.3043,0,0,0,0,0,0,0,0,-0.3077,-0.3076,-0.3063,-0.3064,-0.3064,-0.3057,-0.3053,-0.3038,-0.3061,-0.3063,-0.3063,-0.3064,-0.3051,-0.305,-0.3046,-0.3022,-0.3021,-0.3043,-0.3042,-0.3042,-0.3041,0,0,0,0,0,0,0,-0.3078,-0.3076,-0.3053,-0.3063,-0.3063,-0.3066,-0.3066,-0.305,-0.3052,-0.3063,-0.3064,-0.3062,-0.3051,-0.3047,-0.3045,-0.3021,-0.3043,-0.3042,-0.3041,-0.3041,-0.2975,-0.2975,0,0,0,0,0,0,-0.3079,-0.3077,-0.3054,-0.3053,-0.3073,-0.3065,-0.3064,-0.3058,-0.3052,-0.3052,-0.3062,-0.3063,-0.3049,-0.3047,-0.3045,-0.3015,-0.3042,-0.3041,-0.304,-0.2976,-0.2975,-0.2974,0,0,0,0,0,0,-0.308,-0.3077,-0.3054,-0.3065,-0.3063,-0.3064,-0.3057,-0.3057,-0.3053,-0.3052,-0.3052,-0.3057,-0.3049,-0.3047,-0.3028,-0.3014,-0.304,-0.3039,-0.2977,-0.2976,-0.2975,-0.2954,0,0,0,0,0,0,-0.308,-0.3077,-0.3068,-0.3065,-0.3062,-0.3038,-0.3056,-0.3057,-0.3051,-0.3053,-0.3047,-0.3047,-0.305,-0.303,-0.3027,-0.3013,-0.3038,-0.2979,-0.2977,-0.2975,-0.2956,-0.2952,-0.2949,0,0,0,0,0,-0.3081,-0.3062,-0.3068,-0.3065,-0.3051,-0.3038,-0.3036,-0.304,-0.305,-0.3041,-0.304,-0.3047,-0.3017,-0.3028,-0.3024,-0.301,-0.298,-0.2977,-0.2975,-0.2958,-0.2953,-0.2949,0,0,0,0,0,0,-0.3063,-0.3062,-0.3068,-0.3047,-0.3042,-0.304,-0.3028,-0.3035,-0.3026,-0.3028,-0.3033,-0.3032,-0.3012,-0.3009,-0.3022,-0.2985,-0.3,-0.2997,-0.2987,-0.2983,-0.298,-0.298,-0.3037,0,0,0,0,0,-0.3056,-0.3046,-0.3046,-0.3028,-0.3025,-0.3027,-0.3021,-0.3025,-0.302,-0.3018,-0.3015,-0.3009,-0.2998,-0.2991,-0.2981,-0.2956,-0.2955,-0.2945,-0.2941,-0.2938,-0.2935,-0.2921,-0.2917,-0.2967,-0.2967,-0.2967,0,0,-0.3043,-0.3041,-0.3034,-0.3024,-0.3021,-0.3009,-0.3025,-0.3012,-0.3003,-0.3015,-0.2997,-0.2996,-0.2989,-0.2967,-0.2957,-0.2964,-0.2921,-0.2936,-0.2933,-0.2932,-0.2919,-0.2914,-0.291,-0.2966,-0.2966,-0.2966,0,0,-0.3012,-0.301,-0.2994,-0.2991,-0.2986,-0.2988,-0.2984,-0.2981,-0.298,-0.2963,-0.2971,-0.296,-0.2941,-0.2936,-0.2931,-0.2898,-0.2904,-0.2895,-0.2876,-0.2862,-0.2858,-0.2854,-0.2841,-0.2837,-0.2892,-0.2892,-0.2892,0,-0.2995,-0.2979,-0.2985,-0.2972,-0.2967,-0.2978,-0.2962,-0.2958,-0.2949,-0.2945,-0.2953,-0.293,-0.2926,-0.2903,-0.2895,-0.2891,-0.2885,-0.2895,-0.2858,-0.2855,-0.2851,-0.2839,-0.2834,-0.2891,-0.2891,-0.2891,-0.2891,0,-0.2958,-0.2947,-0.2934,-0.2927,-0.292,-0.2905,-0.2909,-0.2901,-0.2906,-0.2906,-0.2887,-0.2884,-0.2873,-0.2868,-0.2872,-0.2844,-0.2849,-0.2858,-0.2872,-0.2845,-0.2834,-0.2829,-0.2889,-0.2889,-0.289,-0.289,0,0,-0.2914,-0.2911,-0.2906,-0.2902,-0.2898,-0.2889,-0.2874,-0.2864,-0.2857,-0.2851,-0.2838,-0.2822,-0.283,-0.2824,-0.2828,-0.2816,-0.2788,-0.2826,-0.2826,-0.2818,-0.2757,-0.2749,-0.2744,-0.2793,-0.2792,-0.2792,-0.2757,0,-0.2882,-0.2857,-0.2863,-0.2838,-0.2827,-0.2838,-0.2825,-0.282,-0.282,-0.281,-0.281,-0.2798,-0.281,-0.2807,-0.2796,-0.2794,-0.2776,-0.2797,-0.2779,-0.2779,-0.2779,-0.2738,-0.273,-0.2697,-0.2753,-0.2752,-0.2751,0,-0.2841,-0.2835,-0.2809,-0.2806,-0.2802,-0.279,-0.2781,-0.2772,-0.2766,-0.2767,-0.2761,-0.2766,-0.2751,-0.2766,-0.2744,-0.2758,-0.2751,-0.2749,-0.2748,-0.2745,-0.2762,-0.2733,-0.2687,-0.2682,-0.2745,-0.2745,-0.2746,0,-0.281,-0.2795,-0.2777,-0.2774,-0.2771,-0.2762,-0.276,-0.2755,-0.2749,-0.2741,-0.2737,-0.2727,-0.2721,-0.2712,-0.2715,-0.2726,-0.2691,-0.2707,-0.269,-0.269,-0.2681,-0.2681,-0.2632,-0.2679,-0.2679,-0.2679,-0.2679,0,-0.2773,-0.2757,-0.2763,-0.2752,-0.2734,-0.274,-0.2721,-0.272,-0.2717,-0.2705,-0.2714,-0.2702,-0.2707,-0.2695,-0.2697,-0.2678,-0.2675,-0.2674,-0.2675,-0.2673,-0.2673,-0.2667,-0.2669,-0.2678,-0.2678,-0.2679,-0.2679,0,-0.2735,-0.2739,-0.272,-0.2718,-0.2718,-0.2704,-0.2702,-0.2691,-0.2693,-0.2677,-0.2674,-0.2675,-0.2662,-0.2664,-0.265,-0.2651,-0.2626,-0.263,-0.2628,-0.2628,-0.2611,-0.2612,-0.2555,-0.2548,-0.2601,-0.26,-0.26,0,-0.271,-0.2698,-0.2695,-0.2689,-0.2686,-0.2675,-0.2669,-0.2675,-0.2667,-0.266,-0.265,-0.2638,-0.2629,-0.2607,-0.2606,-0.2594,-0.2597,-0.2578,-0.2595,-0.2593,-0.2595,-0.2595,-0.2593,-0.2574,-0.2574,-0.2573,-0.2573,0,-0.2666,-0.2668,-0.266,-0.2651,-0.2643,-0.2637,-0.2631,-0.2625,-0.263,-0.2621,-0.2608,-0.2601,-0.2586,-0.2574,-0.2563,-0.256,-0.2566,-0.2568,-0.2563,-0.256,-0.2559,-0.2558,-0.2617,-0.2569,-0.2569,-0.2569,-0.257,-0.257,-0.2633,-0.2622,-0.2618,-0.2608,-0.2604,-0.2599,-0.2588,-0.2588,-0.2578,-0.2567,-0.2571,-0.2556,-0.2551,-0.2537,-0.2533,-0.2521,-0.2527,-0.2521,-0.2519,-0.2517,-0.2514,-0.2562,-0.2519,-0.2519,-0.2519,-0.2519,-0.2519,0,-0.2588,-0.2586,-0.2577,-0.2568,-0.256,-0.2569,-0.2562,-0.2554,-0.2541,-0.2536,-0.2527,-0.2512,-0.25,-0.2498,-0.2486,-0.2476,-0.2479,-0.2473,-0.2473,-0.2472,-0.2509,-0.2514,-0.2471,-0.2471,-0.2471,-0.2471,-0.2471,-0.2471,-0.2563,-0.2545,-0.2547,-0.2527,-0.2526,-0.2512,-0.2508,-0.2502,-0.2498,-0.2481,-0.2471,-0.247,-0.2466,-0.2454,-0.2443,-0.2443,-0.2437,-0.2429,-0.243,-0.2465,-0.2469,-0.2474,-0.2478,-0.2429,-0.2429,-0.2394,-0.2393,-0.2393]}]]